Volver al catálogo

SL-12 R/B

AUX MOTOR

ActivoUNKNOWN
NORAD 4790·ROCKET BODY·🇷🇺 Russia

Lanzado Dec 2, 1970 desde Baikonur Cosmodrome

Loading…

Próximos Pases

TLE

Source: Space-Track
1  4790U 70103C   26221.53759422  .00000113  00000-0  80588-2 0  9997
2  4790  51.5845 250.7200 1784092 153.0148 217.5831  9.05038291840926

Sigue SL-12 R/B en tiempo real con AllMySat

Download on the App Store